• In France
  • List of Countries
  • For 7 days
  • Water Temperature
  • Satellite Maps
  • Weather Map
  • Weather Widgets
  • user-avatar
    Login

    Hourly Weather Yopal

    Today, 20 February, Tuesday

    Time Temperature Precipitation Wind Pressure Humidity
    00:00 +28°C° 0 mm 2 mps 730 mmHg 53%
    01:00 +27°C° 0 mm 2 mps 730 mmHg 53%
    02:00 +27°C° 0 mm 2 mps 730 mmHg 53%
    03:00 +27°C° 0 mm 2 mps 730 mmHg 53%
    04:00 +27°C° 0 mm 2 mps 730 mmHg 52%
    05:00 +27°C° 0 mm 2 mps 730 mmHg 51%
    06:00 +27°C° 0 mm 3 mps 730 mmHg 50%
    07:00 +28°C° 0 mm 4 mps 731 mmHg 49%
    08:00 +30°C° 0 mm 4 mps 731 mmHg 45%
    09:00 +32°C° 0 mm 5 mps 731 mmHg 41%
    10:00 +34°C° 0 mm 5 mps 731 mmHg 37%
    11:00 +35°C° 0 mm 5 mps 731 mmHg 35%
    12:00 +36°C° 0 mm 5 mps 730 mmHg 33%
    13:00 +37°C° 0 mm 5 mps 729 mmHg 31%
    14:00 +37°C° 0 mm 5 mps 729 mmHg 31%
    15:00 +36°C° 0 mm 4 mps 729 mmHg 32%
    16:00 +36°C° 0 mm 4 mps 728 mmHg 32%
    17:00 +34°C° 0 mm 3 mps 728 mmHg 36%
    18:00 +31°C° 0 mm 2 mps 729 mmHg 40%
    19:00 +30°C° 0 mm 2 mps 729 mmHg 43%
    20:00 +29°C° 0 mm 2 mps 729 mmHg 44%
    21:00 +28°C° 0 mm 2 mps 730 mmHg 46%
    22:00 +28°C° 0 mm 2 mps 730 mmHg 47%
    23:00 +27°C° 0 mm 1 mps 730 mmHg 47%

    Tomorrow, 21 February, Wednesday

    Time Temperature Precipitation Wind Pressure Humidity
    00:00 +27°C° 0 mm 1 mps 730 mmHg 46%
    01:00 +26°C° 0 mm 1 mps 730 mmHg 46%
    02:00 +26°C° 0 mm 1 mps 730 mmHg 45%
    03:00 +26°C° 0 mm 1 mps 730 mmHg 45%
    04:00 +26°C° 0 mm 1 mps 730 mmHg 44%
    05:00 +26°C° 0 mm 2 mps 730 mmHg 44%
    06:00 +27°C° 0 mm 2 mps 731 mmHg 43%
    07:00 +27°C° 0 mm 3 mps 731 mmHg 43%
    08:00 +29°C° 0 mm 3 mps 731 mmHg 40%
    09:00 +32°C° 0 mm 4 mps 732 mmHg 37%
    10:00 +34°C° 0 mm 5 mps 732 mmHg 34%
    11:00 +35°C° 0 mm 5 mps 731 mmHg 33%
    12:00 +36°C° 0 mm 5 mps 730 mmHg 31%
    13:00 +37°C° 0 mm 5 mps 730 mmHg 30%
    14:00 +37°C° 0 mm 4 mps 729 mmHg 31%
    15:00 +37°C° 0 mm 4 mps 728 mmHg 32%
    16:00 +37°C° 0 mm 4 mps 728 mmHg 32%
    17:00 +35°C° 0 mm 3 mps 728 mmHg 37%
    18:00 +32°C° 0 mm 2 mps 729 mmHg 42%
    19:00 +30°C° 0 mm 2 mps 729 mmHg 46%
    20:00 +29°C° 0 mm 2 mps 730 mmHg 48%
    21:00 +29°C° 0 mm 2 mps 730 mmHg 49%
    22:00 +28°C° 0 mm 1 mps 731 mmHg 50%
    23:00 +28°C° 0 mm 1 mps 731 mmHg 51%

    Day after tomorrow, 22 February, Thursday

    Time Temperature Precipitation Wind Pressure Humidity
    00:00 +27°C° 0 mm 1 mps 730 mmHg 52%
    01:00 +27°C° 0 mm 1 mps 730 mmHg 52%
    02:00 +27°C° 0 mm 1 mps 730 mmHg 52%
    03:00 +27°C° 0 mm 2 mps 730 mmHg 52%
    04:00 +26°C° 0 mm 2 mps 730 mmHg 53%
    05:00 +27°C° 0 mm 2 mps 730 mmHg 52%
    06:00 +27°C° 0 mm 3 mps 731 mmHg 52%
    07:00 +28°C° 0 mm 3 mps 731 mmHg 52%
    08:00 +29°C° 0 mm 4 mps 731 mmHg 48%
    09:00 +32°C° 0 mm 4 mps 732 mmHg 44%
    10:00 +34°C° 0 mm 5 mps 732 mmHg 40%
    11:00 +35°C° 0 mm 5 mps 731 mmHg 39%
    12:00 +35°C° 0 mm 4 mps 731 mmHg 39%
    13:00 +36°C° 0 mm 4 mps 730 mmHg 39%
    14:00 +35°C° 0.1 mm 4 mps 729 mmHg 41%
    15:00 +35°C° 0.1 mm 3 mps 728 mmHg 43%
    16:00 +34°C° 0.1 mm 3 mps 728 mmHg 45%
    17:00 +32°C° 0.1 mm 2 mps 728 mmHg 47%
    18:00 +31°C° 0.1 mm 2 mps 728 mmHg 50%
    19:00 +30°C° 0.1 mm 2 mps 729 mmHg 53%
    20:00 +29°C° 0 mm 2 mps 729 mmHg 54%
    21:00 +29°C° 0 mm 2 mps 730 mmHg 55%
    22:00 +28°C° 0 mm 2 mps 730 mmHg 56%
    23:00 +28°C° 0 mm 2 mps 730 mmHg 56%

    23 February, Friday

    Time Temperature Precipitation Wind Pressure Humidity
    00:00 +27°C° 0 mm 1 mps 730 mmHg 56%
    01:00 +27°C° 0 mm 1 mps 730 mmHg 56%
    02:00 +27°C° 0 mm 1 mps 730 mmHg 56%
    03:00 +26°C° 0 mm 1 mps 729 mmHg 56%
    04:00 +26°C° 0 mm 1 mps 729 mmHg 56%
    05:00 +27°C° 0 mm 2 mps 730 mmHg 54%
    06:00 +27°C° 0 mm 2 mps 730 mmHg 53%
    07:00 +27°C° 0 mm 3 mps 731 mmHg 51%
    08:00 +29°C° 0 mm 4 mps 731 mmHg 46%
    09:00 +33°C° 0 mm 4 mps 731 mmHg 42%
    10:00 +35°C° 0 mm 4 mps 732 mmHg 37%
    11:00 +35°C° 0 mm 4 mps 731 mmHg 36%
    12:00 +36°C° 0 mm 4 mps 730 mmHg 36%
    13:00 +37°C° 0 mm 4 mps 729 mmHg 35%
    14:00 +36°C° 0.1 mm 4 mps 728 mmHg 36%
    15:00 +36°C° 0.1 mm 3 mps 727 mmHg 36%
    16:00 +36°C° 0.1 mm 3 mps 727 mmHg 36%
    17:00 +34°C° 0.1 mm 3 mps 727 mmHg 40%
    18:00 +32°C° 0.1 mm 2 mps 727 mmHg 44%
    19:00 +30°C° 0.1 mm 2 mps 728 mmHg 48%
    20:00 +30°C° 0.1 mm 2 mps 728 mmHg 49%
    21:00 +29°C° 0.1 mm 1 mps 729 mmHg 50%
    22:00 +28°C° 0.1 mm 1 mps 730 mmHg 51%
    23:00 +28°C° 0 mm 1 mps 729 mmHg 51%

    24 February, Saturday

    Time Temperature Precipitation Wind Pressure Humidity
    00:00 +28°C° 0 mm 1 mps 729 mmHg 52%
    01:00 +27°C° 0 mm 1 mps 729 mmHg 52%
    02:00 +27°C° 0 mm 1 mps 729 mmHg 52%
    03:00 +26°C° 0 mm 1 mps 728 mmHg 51%
    04:00 +26°C° 0 mm 1 mps 728 mmHg 51%
    05:00 +26°C° 0 mm 2 mps 729 mmHg 50%
    06:00 +27°C° 0 mm 2 mps 729 mmHg 48%
    07:00 +27°C° 0 mm 2 mps 730 mmHg 47%
    08:00 +29°C° 0 mm 3 mps 730 mmHg 43%
    09:00 +33°C° 0 mm 3 mps 730 mmHg 39%
    10:00 +35°C° 0 mm 4 mps 731 mmHg 35%
    11:00 +35°C° 0 mm 4 mps 730 mmHg 35%
    12:00 +36°C° 0 mm 4 mps 729 mmHg 35%
    13:00 +36°C° 0 mm 3 mps 728 mmHg 35%
    14:00 +36°C° 0.1 mm 3 mps 728 mmHg 36%
    15:00 +36°C° 0.1 mm 3 mps 727 mmHg 36%
    16:00 +36°C° 0.1 mm 3 mps 726 mmHg 36%
    17:00 +35°C° 0.1 mm 2 mps 727 mmHg 40%
    18:00 +32°C° 0.1 mm 2 mps 727 mmHg 45%
    19:00 +30°C° 0.1 mm 1 mps 728 mmHg 49%
    20:00 +30°C° 0.1 mm 1 mps 728 mmHg 50%
    21:00 +29°C° 0.1 mm 1 mps 729 mmHg 51%
    22:00 +28°C° 0.1 mm 1 mps 729 mmHg 52%
    23:00 +28°C° 0 mm 1 mps 729 mmHg 52%

    25 February, Sunday

    Time Temperature Precipitation Wind Pressure Humidity
    00:00 +28°C° 0 mm 1 mps 729 mmHg 53%
    01:00 +28°C° 0 mm 1 mps 729 mmHg 53%
    02:00 +27°C° 0 mm 1 mps 729 mmHg 52%
    03:00 +27°C° 0 mm 1 mps 729 mmHg 52%
    04:00 +27°C° 0 mm 1 mps 729 mmHg 52%
    05:00 +27°C° 0 mm 2 mps 729 mmHg 50%
    06:00 +28°C° 0 mm 2 mps 730 mmHg 49%
    07:00 +28°C° 0 mm 2 mps 731 mmHg 47%
    08:00 +30°C° 0 mm 3 mps 731 mmHg 43%
    09:00 +33°C° 0 mm 3 mps 731 mmHg 38%
    10:00 +36°C° 0 mm 4 mps 731 mmHg 34%
    11:00 +36°C° 0 mm 4 mps 730 mmHg 33%
    12:00 +37°C° 0 mm 4 mps 729 mmHg 33%
    13:00 +38°C° 0 mm 3 mps 728 mmHg 33%
    14:00 +37°C° 0 mm 3 mps 728 mmHg 34%
    15:00 +37°C° 0 mm 3 mps 727 mmHg 35%
    16:00 +37°C° 0 mm 3 mps 727 mmHg 36%
    17:00 +35°C° 0.3 mm 2 mps 727 mmHg 41%
    18:00 +34°C° 0.3 mm 2 mps 728 mmHg 47%
    19:00 +31°C° 0.3 mm 1 mps 729 mmHg 52%
    20:00 +30°C° 0.5 mm 1 mps 729 mmHg 56%
    21:00 +29°C° 0.5 mm 2 mps 729 mmHg 59%
    22:00 +28°C° 0.5 mm 2 mps 730 mmHg 62%
    23:00 +28°C° 0 mm 2 mps 730 mmHg 62%
    Show more